www.pogodaiklimat.ru

Погода и климат >> Архив погоды >> Россия >> Нижегородская область >> Сергач


ПОГОДА в Сергаче

  • Прогноз погоды в Сергаче
  • Монитор погоды в Сергаче

АРХИВ ПОГОДЫ в Сергаче

Время (UTC), дата Ветер
(напр.,м/с)
 
Видим.   Явления Облачность Т
(С)
Тd
(С)
f
(%)
Тe
(С)
Тes
(С)
Комфортность P
(гПа)
Po
(гПа)
Тmin
(С)
Tmax
(С)
R
(мм)
R24
(мм)
S
(см)
06 15.08 ЮВ 3-5
{5}
20 км 3/0
[Ci fib]
+22.7 +14.8 61 +26 +32 жарко 1013.7 999.2
09 15.08 Ю 3-6
{7}
20 км 4/0
[Cs]
+27.8 +15.2 46 +30 +40 жарко 1012.7 998.5
12 15.08 Ю 3-6
{8}
20 км 3/3 1000 м
[Cu hum]
+30.8 +14.6 37 +33 +37 душно 1010.9 996.9
15 15.08 Ю 3-6
{8}
20 км 3/0
[Ci fib]
+29.8 +15.4 42 +33 +33 душно 1009.6 995.6 +31.8
18 15.08 ЮЗ 2-4
{7}
20 км 4/4 600 м
[Cu med, cong]
+25.3 +16.4 58 +29 +29 душно 1010.6 996.3
21 15.08 СЗ 1-2
{7}
20 км 3/0
[Cc]
+21.4 +17.2 77 +25 +25 комфорт 1012.2 997.7
00 16.08 З 1-1
{4}
20 км 8/0
[Cs]
+18.3 +16.9 92 +20 +20 1012.9 998.2
03 16.08 СВ 1-2
{3}
20 км 10/0
[Ac As]
+18.8 +17.8 94 +21 +22 комфорт 1012.3 997.7 +17.8
06 16.08 С 4-10
{10}
20 км 10/4 600 м
[Frnb As trans]
+16.6 +14.7 89 +16 +17 1014.0 999.2 +16.5
09 16.08 В 3-5
{11}
4000 м слаб. дождь 10/10 300 м
[Frnb Ns]
+17.2 +16.5 96 +17 +17 1014.8 1000.1
12 16.08 В 2-4
{6}
20 км {дождь} 10/4 600 м
[St As trans]
+19.5 +17.2 87 +22 +24 комфорт 1014.3 999.7
15 16.08 С 1-1
{5}
20 км 10/6 600 м
[Cu med, cong Ac As]
+19.3 +17.0 87 +22 +22 комфорт 1014.1 999.5 +20.1 16
18 16.08 СВ 1-2
{3}
4000 м слаб. дождь 10/10 300 м
[Frnb Ns]
+18.1 +17.3 95 +19 +19 1014.3 999.6
21 16.08 СВ 3-5
{7}
4000 м слаб. дождь 10/10 300 м
[Frnb Ns]
+17.5 +16.9 96 +17 +17 1013.8 999.1
00 17.08 СВ 2-4
{4}
20 км {дождь} 10/10 300 м
[Frnb]
+16.8 +15.9 94 +17 +17 1013.7 998.9
03 17.08 штиль 0
{7}
20 км {дождь} 10/10 600 м
[Frnb]
+16.7 +15.9 95 +17 +17 1014.4 999.6 +16.0 3
06 17.08 В 1-4
{5}
20 км {дождь} 10/8 600 м
[Frnb As trans]
+19.5 +18.1 92 +23 +24 комфорт 1014.5 999.9
09 17.08 В 2-5
{5}
20 км 9/8 600 м
[Cu med, cong Ac cuf Cs]
+23.1 +18.0 73 +29 +31 очень
душно
1014.3 999.9
12 17.08 СВ 2-3
{5}
20 км 10/8 600 м
[Sc Ac As]
+21.4 +18.2 82 +26 +26 душно 1014.4 999.9
15 17.08 СВ 2-4
{5}
20 км 10/8 600 м
[Sc Ac As]
+19.9 +18.0 89 +23 +23 комфорт 1014.7 1000.1 +24.3
18 17.08 СВ 3-6
{7}
20 км {дождь} 10/9 300 м
[St As trans]
+19.0 +18.2 95 +21 +21 комфорт 1014.1 999.5
21 17.08 В 2-4
{6}
20 км 10/8 300 м
[St As trans]
+18.7 +17.9 95 +20 +20 1014.0 999.3
00 18.08 СВ 4-8
{8}
20 км 10/10 300 м
[St]
+18.5 +17.7 95 +19 +19 1013.2 998.5
03 18.08 В 3-5
{8}
4000 м слаб. дождь 10/10 300 м
[Frnb Ns]
+18.1 +17.3 95 +18 +18 1011.7 997.1 +18.1 0.5
06 18.08 В 4-7
{8}
20 км {дождь} 9/0
[Ac As]
+20.1 +17.4 84 +23 +25 комфорт 1011.7 997.2
09 18.08 ЮВ 3-4
{6}
20 км 8/0
[Ac As Ci]
+25.6 +15.9 55 +29 +34 душно 1011.6 997.4
12 18.08 Ю 3-7
{8}
20 км 8/3 1000 м
[Cu hum Ac trans]
+29.1 +14.9 42 +32 +34 душно 1011.7 997.6
15 18.08 Ю 2-3
{7}
20 км 9/3 600 м
[Sc Ac As Cs]
+26.8 +15.5 50 +30 +30 душно 1012.7 998.4 +30.7 0.0
18 18.08 штиль 0
{2}
20 км 8/3 600 м
[Sc Ac As Cs]
+22.1 +16.4 70 +26 +26 душно 1014.0 999.5
21 18.08 ЮЗ 4-7
{7}
20 км 9/5 600 м
[Cu med, cong Ac cuf]
+21.8 +16.4 71 +26 +26 душно 1015.3 1000.8
00 19.08 В 1-2
{7}
4000 м слаб. дождь {гроза} 10/10 600 м
[Frnb Ns]
+18.1 +17.3 95 +19 +19 1016.0 1001.3
03 19.08 В 3-5
{5}
20 км {дождь} 8/5 600 м
[Frnb Ac As Cs]
+18.0 +17.4 96 +18 +18 1016.0 1001.3 +17.8 7
06 19.08 ЮВ 1-3
{5}
20 км {дождь} 8/0
[Ac As Cs]
+23.0 +16.6 67 +28 +33 душно 1015.8 1001.4
09 19.08 З 2-4
{6}
20 км 9/3 600 м
[Cu med, cong Ac trans Cs]
+25.0 +17.1 62 +29 +33 душно 1016.0 1001.7
12 19.08 ЮЗ 2-4
{6}
20 км 9/5 600 м
[Sc diur, vesp Ac trans Ci fib]
+24.6 +18.1 67 +29 +31 душно 1016.4 1002.0
15 19.08 ЮЗ 2-5
{5}
20 км 8/3 600 м
[Cb calv As trans Cs]
+24.4 +17.2 64 +28 +29 душно 1017.0 1002.5 +25.7
18 19.08 СЗ 2-3
{4}
20 км 4/3 600 м
[Sc diur, vesp Ac cuf]
+18.7 +15.7 83 +20 +20 1018.7 1003.9
21 19.08 СЗ 2-3
{3}
20 км ясно +15.2 +13.6 90 +15 +15 1019.5 1004.5
00 20.08 штиль 0
{3}
20 км ясно +13.3 +12.5 95 +13 +13 1020.2 1005.1
03 20.08 З 1-1
{1}
4000 м дымка 4/0
[Cs]
+12.6 +12.1 97 +12 +13 1021.1 1006.0 +12.2
06 20.08 З 2-4
{4}
20 км 3/3 600 м
[Cu med, cong]
+20.7 +16.0 74 +25 +29 комфорт 1021.2 1006.5
09 20.08 СЗ 2-4
{6}
20 км 5/5 600 м
[Cu med, cong]
+24.9 +15.9 57 +28 +34 жарко 1021.1 1006.6
12 20.08 СЗ 2-4
{5}
20 км 8/8 600 м
[Cu med, cong]
+25.9 +14.4 49 +28 +30 жарко 1020.8 1006.4
15 20.08 С 1-2
{4}
20 км 5/4 600 м
[Sc diur, vesp Ac cuf]
+24.7 +15.1 55 +28 +28 душно 1020.9 1006.3 +27.6
18 20.08 СЗ 1-3
{3}
20 км ясно +17.6 +14.9 84 +19 +19 1021.8 1007.0
21 20.08 З 1-1
{3}
20 км ясно +15.2 +13.9 92 +16 +16 1022.7 1007.7
00 21.08 З 1-2
{2}
20 км ясно +13.3 +12.5 95 +13 +13 1023.0 1007.8
03 21.08 З 1-1
{2}
20 км 4/0
[Ci fib]
+12.8 +12.2 96 +13 +13 1023.8 1008.6 +12.3
06 21.08 ЮЗ 1-2
{2}
20 км ясно +22.5 +16.6 69 +27 +35 душно 1023.6 1009.0
09 21.08 З 1-3
{4}
20 км 8/3 1000 м
[Cu hum Ci fib]
+26.7 +14.8 48 +29 +37 жарко 1022.7 1008.3
12 21.08 СЗ 2-4
{6}
20 км 6/3 1000 м
[Cu hum Ci fib]
+28.5 +16.1 47 +32 +36 душно 1022.3 1008.0
15 21.08 С 1-2
{6}
20 км 6/0
[Ci fib]
+26.4 +16.9 56 +30 +31 душно 1022.0 1007.6 +28.8
18 21.08 С 2-5
{5}
20 км 3/0
[Ci fib]
+21.3 +17.0 76 +25 +25 комфорт 1022.5 1007.9
21 21.08 В 1-2
{5}
20 км ясно +18.8 +16.9 89 +21 +21 комфорт 1022.7 1007.9
00 22.08 штиль 0
{3}
20 км 3/0
[Ci fib]
+16.3 +15.2 93 +16 +16 1022.8 1007.9
03 22.08 штиль 0
{2}
4000 м дымка 6/0
[Cs]
+14.9 +14.0 94 +15 +15 1023.2 1008.2 +14.8

 

Местоположение метеостанции Сергач (Нижегородская область, Россия): широта 55.53 долгота 45.50 высота над уровнем моря 125 м.

В архиве по умолчанию представлена погода в Сергаче за последнюю неделю. Архивные данные за месяц целиком и за предыдущие месяцы, начиная с января 2011 года, Вы можете получить, выбрав интересующий диапазон дат из раскрывающегося списка и нажав кнопку "Ввод!".


*Определитесь, кто Вы:
робот инопланетянин человек

Внимание! Время в таблицах - всемирное. Для получения местного времени необходимо прибавить поправку, которая равна 3 ч.

Смотрите также архив погоды в соседних городах и на ближайших метеорологических станциях:

Погода в Большом Болдино (Нижегородская область, Россия) (58 км)
Погода в Лысково (Нижегородская область, Россия) (61 км)
Погода в Порецком (Чувашия, Россия) (65 км)
Погода в Лукоянове (Нижегородская область, Россия) (84 км)
Погода в Дальнем Константиново (Нижегородская область, Россия) (94 км)
Погода в Алатыре (Чувашия, Россия) (105 км)
Погода в Арзамасе (Нижегородская область, Россия) (110 км)
Погода в Козьмодемьянске (Марий-Эл, Россия) (112 км)
Погода в Канаше (Чувашия, Россия) (124 км)
Погода в Нижнем Новгороде (Нижегородская область, Россия) (125 км)

Пояснения к столбцам:

Ветер - указаны скорость ветра в м/с - средняя за 10 мин, порывы в срок и между сроками (в фигурных скобках) и направление, откуда дует ветер: С - северный, СВ - северо-восточный, В - восточный, ЮВ - юго-восточный, Ю - южный, ЮЗ - юго-западный, З - западный, СЗ - северо-западный.
Видимость - горизонтальная дальность видимости в метрах или километрах. При видимости от 1 до 10 км при отсутствии осадков обычно наблюдается дымка, при ухудшении видимости до 1 км и менее - туман. В сухую погоду видимость может ухудшаться дымом, пылью или мглою.
Явления - указаны атмосферные явления, наблюдавшиеся в срок или в последний час перед сроком; фигурными скобками обозначены явления, наблюдавшиеся между сроками (за 1-3 часа до срока); квадратными скобками обозначены град или гололедные отложения с указанием их диаметра в мм.
Облачность - указаны через наклонную черту общая и нижняя облачность в баллах и высота нижней границы облаков в метрах; квадратными скобками обозначены формы облаков: Ci - перистые, Cs - перисто-слоистые, Cc - перисто-кучевые, Ac - высококучевые, As - высокослоистые, Sc - слоисто-кучевые, Ns - слоисто-дождевые, Cu - кучевые, Cb - кучево-дождевые. Подробнее классификацию облаков см. в Атласе облаков (PDF).
T - Температура воздуха - температура, измеренная на высоте 2 м над землей.
Td - Температура точки росы - температура, при понижении до которой содержащийся в воздухе водяной пар достигнет насыщения.
f - Относительная влажность воздуха - влажноcть воздуха, измеренная на высоте 2 м над землей.
Te - Эффективная температура - температура, которую ощущает одетый по сезону человек в тени. Характеристика душности погоды. При расчете учитывается влияние влажности воздуха и скорости ветра на теплоощущения человека.
Tes - Эффективная температура на солнце - температура, которую ощущает человек, с поправкой на солнечный нагрев. Характеристика знойности погоды. Зависит от высоты солнца над горизонтом, облачности и скорости ветра. Ночью, в пасмурную погоду, а также при ветре 12 м/с и более поправка равна нулю.
P - Атмосферное давление - приведенное к уровню моря атмосферное давление.
Po - Атмосферное давление - измеренное на уровне метеостанции атмосферное давление.
Tmin - Минимальная температура - минимум температуры воздуха на высоте 2 м над землей.
Tmax - Максимальная температура - максимум температуры воздуха на высоте 2 м над землей.
R - Количество осадков - Количество выпавших осадков за период времени, мм. При наведении курсора мыши на число - период времени, за который выпало указанное количество осадков.
R24 - Количество осадков - Количество выпавших осадков за 24 часа, мм.
S - Снежный покров - Высота снежного покрова, см. При наведении курсора мыши на число - состояние снежного покрова и степень покрытия местности в баллах.